Coleman, TX

5:57 AM CST on November 22, 2017 (GMT -0600)
Coleman Municipal

Weather History for KCOM - March, 2014

Change the Weather History Date:

Friday, March 14, 2014

  Actual Average (KABI) Record (KABI)
Temperature  
Mean Temperature 58 °F -  
Max Temperature 77 °F 64 °F 91 °F (1908)
Min Temperature 40 °F 42 °F 18 °F (1988)
Degree Days  
Heating Degree Days 7    
Growing Degree Days 8 (Base 50)    
Moisture  
Dew Point 37 °F    
Average Humidity 45    
Maximum Humidity 66    
Minimum Humidity 29    
Precipitation  
Precipitation 0.00 in - - ()
Sea Level Pressure  
Sea Level Pressure 29.98 in    
Wind  
Wind Speed 8 mph (South)    
Max Wind Speed 17 mph    
Max Gust Speed 22 mph    
Visibility 10 miles    
Events      
Averages and records for this station are not official NWS values.
T = Trace of Precipitation, MM = Missing Value Source: NWS Daily Summary

Daily Weather History Graph

Daily Weather History Graph

Search for Another Location

Airport or City:

Trip Planner

Search our weather history database for the weather conditions in past years. The results will help you decide how hot, cold, wet, or windy it might be!

Date:

Astronomy

Mar. 14, 2014 Rise Set
Actual Time 7:48 AM CDT 7:45 PM CDT
Civil Twilight 7:24 AM CDT 8:09 PM CDT
Nautical Twilight 6:56 AM CDT 8:37 PM CDT
Astronomical Twilight 6:27 AM CDT 9:06 PM CDT
Moon 6:12 PM CDT (3/14) 6:24 AM CDT (3/14)
Length of Visible Light 12h 44m
Length of Day
11h 56m
Waxing Gibbous, 96% of the Moon is Illuminated
Mar 14
Waxing Gibbous
Mar 16
Full
Mar 23
Last Quarter
Mar 30
New
Apr 7
First Quarter

Hourly Weather History & Observations

Time (CDT) Temp. Windchill Dew Point Humidity Pressure Visibility Wind Dir Wind Speed Gust Speed Precip Events Conditions
12:15 AM 50.9 °F - 21.2 °F 31% 30.05 in 10.0 mi South 9.2 mph - N/A   Clear
12:35 AM 50.4 °F - 21.2 °F 32% 30.03 in 10.0 mi South 9.2 mph - N/A   Clear
12:55 AM 50.4 °F - 21.2 °F 32% 30.03 in 10.0 mi SSW 10.4 mph - N/A   Clear
1:15 AM 48.9 °F - 21.6 °F 34% 30.03 in 10.0 mi SSW 9.2 mph - N/A   Clear
1:35 AM 46.9 °F - 21.9 °F 37% 30.03 in 10.0 mi SSW 6.9 mph - N/A   Clear
1:55 AM 46.4 °F 43.5 °F 21.9 °F 38% 30.04 in 10.0 mi SSW 5.8 mph - N/A   Clear
2:15 AM 46.6 °F - 21.2 °F 37% 30.04 in 10.0 mi SSW 4.6 mph - N/A   Clear
2:35 AM 45.7 °F 42.7 °F 21.9 °F 39% 30.03 in 10.0 mi SSW 5.8 mph - N/A   Clear
2:55 AM 44.6 °F 41.4 °F 21.7 °F 40% 30.03 in 10.0 mi South 5.8 mph - N/A   Clear
3:15 AM 44.6 °F 41.4 °F 21.7 °F 40% 30.01 in 10.0 mi SSW 5.8 mph - N/A   Clear
3:35 AM 45.0 °F 41.2 °F 22.1 °F 40% 30.00 in 10.0 mi SSW 6.9 mph - N/A   Clear
3:55 AM 44.4 °F 40.0 °F 22.6 °F 42% 29.99 in 10.0 mi South 8.1 mph - N/A   Clear
4:15 AM 46.6 °F - 23.0 °F 39% 29.99 in 10.0 mi SSW 11.5 mph - N/A   Clear
4:35 AM 46.4 °F 41.9 °F 23.4 °F 40% 29.99 in 10.0 mi SSW 9.2 mph - N/A   Clear
4:55 AM 45.5 °F 41.3 °F 23.5 °F 42% 29.98 in 10.0 mi SSW 8.1 mph - N/A   Clear
5:15 AM 44.6 °F 40.2 °F 23.7 °F 44% 29.98 in 10.0 mi SSW 8.1 mph - N/A   Clear
5:35 AM 44.1 °F 39.0 °F 23.9 °F 45% 29.98 in 10.0 mi SSW 9.2 mph - N/A   Clear
5:55 AM 43.5 °F 39.4 °F 24.4 °F 47% 29.98 in 10.0 mi SSW 6.9 mph - N/A   Clear
6:15 AM 43.2 °F 39.0 °F 25.5 °F 50% 29.98 in 10.0 mi SSW 6.9 mph - N/A   Clear
6:35 AM 43.9 °F 41.3 °F 27.0 °F 51% 29.99 in 10.0 mi SSW 4.6 mph - N/A   Clear
6:55 AM 42.8 °F 41.1 °F 27.9 °F 56% 29.99 in 10.0 mi South 3.5 mph - N/A   Clear
7:15 AM 41.9 °F - 27.5 °F 57% 29.99 in 10.0 mi Calm Calm - N/A   Clear
7:35 AM 41.0 °F 37.1 °F 28.0 °F 60% 29.99 in 10.0 mi South 5.8 mph - N/A   Clear
7:55 AM 40.5 °F 38.4 °F 28.9 °F 64% 30.00 in 10.0 mi SSW 3.5 mph - N/A   Clear
8:15 AM 42.1 °F 39.2 °F 30.2 °F 63% 30.00 in 10.0 mi SSW 4.6 mph - N/A   Clear
8:35 AM 43.2 °F 40.5 °F 32.4 °F 66% 30.00 in 10.0 mi South 4.6 mph - N/A   Clear
8:55 AM 46.8 °F - 35.2 °F 64% 30.01 in 10.0 mi SSW 4.6 mph - N/A   Clear
9:15 AM 50.0 °F - 38.8 °F 66% 30.01 in 10.0 mi South 8.1 mph - N/A   Clear
9:35 AM 52.3 °F - 40.3 °F 64% 30.02 in 10.0 mi SSW 6.9 mph - N/A   Clear
9:55 AM 54.3 °F - 43.0 °F 66% 30.03 in 10.0 mi SSW 8.1 mph - N/A   Clear
10:15 AM 56.1 °F - 43.5 °F 63% 30.03 in 10.0 mi SSW 9.2 mph - N/A   Clear
10:35 AM 57.7 °F - 44.8 °F 62% 30.03 in 10.0 mi SSW 13.8 mph 21.9 mph N/A   Clear
10:55 AM 59.0 °F - 45.3 °F 60% 30.03 in 10.0 mi SSW 15.0 mph 19.6 mph N/A   Clear
11:15 AM 60.3 °F - 45.1 °F 57% 30.03 in 10.0 mi SSW 15.0 mph 19.6 mph N/A   Clear
11:35 AM 61.5 °F - 45.5 °F 56% 30.03 in 10.0 mi SSW 17.3 mph - N/A   Clear
11:55 AM 63.0 °F - 45.3 °F 53% 30.03 in 10.0 mi South 13.8 mph 17.3 mph N/A   Clear
12:15 PM 65.3 °F - 45.7 °F 49% 30.02 in 10.0 mi SSW 15.0 mph 20.7 mph N/A   Clear
12:35 PM 66.7 °F - 45.0 °F 45% 30.01 in 10.0 mi SW 13.8 mph 18.4 mph N/A   Clear
12:55 PM 68.9 °F - 44.6 °F 42% 30.01 in 10.0 mi SW 11.5 mph - N/A   Clear
1:15 PM 70.0 °F - 45.1 °F 41% 30.00 in 10.0 mi SSW 12.7 mph 17.3 mph N/A   Clear
1:35 PM 70.9 °F - 43.0 °F 37% 29.99 in 10.0 mi SW 8.1 mph - N/A   Clear
1:55 PM 72.9 °F - 44.4 °F 36% 29.98 in 10.0 mi SW 8.1 mph 16.1 mph N/A   Clear
2:15 PM 72.7 °F - 42.6 °F 34% 29.98 in 10.0 mi SSW 6.9 mph 16.1 mph N/A   Clear
2:35 PM 73.9 °F - 41.9 °F 32% 29.96 in 10.0 mi South 9.2 mph 16.1 mph N/A   Clear
2:55 PM 75.2 °F - 41.7 °F 30% 29.95 in 10.0 mi SW 6.9 mph 18.4 mph N/A   Clear
3:15 PM 75.2 °F - 41.4 °F 30% 29.94 in 10.0 mi SSW 15.0 mph 21.9 mph N/A   Clear
3:35 PM 76.1 °F - 41.9 °F 29% 29.93 in 10.0 mi SW 11.5 mph 18.4 mph N/A   Clear
3:55 PM 75.9 °F - 41.4 °F 29% 29.91 in 10.0 mi SSW 13.8 mph 18.4 mph N/A   Clear
4:15 PM 76.3 °F - 42.4 °F 30% 29.91 in 10.0 mi South 5.8 mph - N/A   Clear
4:35 PM 76.3 °F - 42.3 °F 30% 29.91 in 10.0 mi South 9.2 mph - N/A   Clear
4:55 PM 75.7 °F - 41.5 °F 29% 29.90 in 10.0 mi South 6.9 mph - N/A   Clear
5:15 PM 75.7 °F - 42.1 °F 30% 29.91 in 10.0 mi South 3.5 mph - N/A   Clear
5:35 PM 76.6 °F - 42.3 °F 29% 29.90 in 10.0 mi SSW 4.6 mph - N/A   Clear
5:55 PM 75.6 °F - 42.8 °F 31% 29.90 in 10.0 mi SSE 10.4 mph - N/A   Clear
6:15 PM 74.8 °F - 42.3 °F 31% 29.90 in 10.0 mi SSE 9.2 mph - N/A   Clear
6:35 PM 74.3 °F - 41.7 °F 31% 29.90 in 10.0 mi South 6.9 mph - N/A   Clear
6:55 PM 73.6 °F - 41.9 °F 32% 29.91 in 10.0 mi SSE 9.2 mph - N/A   Clear
7:15 PM 72.3 °F - 42.4 °F 34% 29.91 in 10.0 mi SSE 6.9 mph - N/A   Clear
7:35 PM 70.7 °F - 43.3 °F 37% 29.91 in 10.0 mi SSE 6.9 mph - N/A   Clear
7:55 PM 68.9 °F - 43.2 °F 39% 29.93 in 10.0 mi SSE 4.6 mph - N/A   Clear
8:15 PM 66.7 °F - 43.3 °F 43% 29.92 in 10.0 mi SSE 5.8 mph - N/A   Clear
8:35 PM 64.4 °F - 43.3 °F 46% 29.92 in 10.0 mi SSE 8.1 mph - N/A   Clear
8:55 PM 65.3 °F - 44.4 °F 47% 29.93 in 10.0 mi SSE 8.1 mph - N/A   Clear
9:15 PM 64.9 °F - 44.8 °F 48% 29.93 in 10.0 mi SSE 9.2 mph - N/A   Clear
9:35 PM 64.2 °F - 45.5 °F 51% 29.94 in 10.0 mi SSE 8.1 mph - N/A   Clear
9:55 PM 63.7 °F - 46.2 °F 53% 29.94 in 10.0 mi SSE 9.2 mph - N/A   Clear
10:15 PM 64.6 °F - 47.1 °F 53% 29.96 in 10.0 mi SSE 6.9 mph - N/A   Clear
10:35 PM 64.0 °F - 47.3 °F 54% 29.95 in 10.0 mi SSE 8.1 mph - N/A   Clear
10:55 PM 63.0 °F - 47.5 °F 57% 29.95 in 10.0 mi SSE 8.1 mph - N/A   Clear
11:15 PM 62.8 °F - 48.0 °F 59% 29.95 in 10.0 mi SSE 6.9 mph - N/A   Clear
11:35 PM 61.9 °F - 48.2 °F 61% 29.96 in 10.0 mi SSE 6.9 mph - N/A   Clear
11:55 PM 61.7 °F - 48.6 °F 62% 29.95 in 10.0 mi SSE 6.9 mph - N/A   Clear